Flag for Cuba Weather past 2 weeks in Holguín, Cuba

Now
75 °F

Fog.


Feels Like: 75 °F
Forecast: 72 / 92 °F
Wind: 5 mph from Southeast

Location: Holguin Civ / Mil

Current Time: Oct 1, 2014 at 3:25:51 AM

Latest Report: Oct 1, 2014 at 2:50 AM


Visibility: 4 mi

Pressure: 29.92 "Hg

Humidity: 83%

Dew point: 70 °F

Location of HolguínLocation

Historic Weather in Holguín — Graph

°F

Holguín temperature yesterday

Maximum temperature yesterday: 93 °F (at 2:50 PM)
Minimum temperature yesterday: 73 °F (at 3:50 AM)
Average temperature yesterday: 82 °F

Past Weeks' High & Low Weather Summary

 TemperatureHumidityPressure
High93 °F (Sep 20, 3:50 PM)100% (Sep 20, 3:51 AM)30.04 "Hg (Sep 20, 3:51 AM)
Low70 °F (Sep 17, 1:50 AM)39% (Sep 30, 2:50 PM)29.83 "Hg (Sep 26, 4:03 PM)
Average80 °F77%29.93 "Hg
* Reported Sep 16 1:50 AM — Oct 1 1:50 AM, Holguín, Weather by CustomWeather, © 2014

Note: Actual official high and low records may vary slightly from our data, if they occured in-between our weather recording intervals... More about our weather records

Advertising

Holguín weather history for previous 24 hours

 ConditionsComfort  
Time TempWeatherWind HumidityBarometerVisibility
1:50 AM
Oct 1
75 °FClear.6 mph89%29.95 "Hg5 mi
12:50 AM75 °FPassing clouds.6 mph89%29.95 "HgN/A
11:50 PM
Sep 30
77 °FPassing clouds.5 mph83%29.95 "HgN/A
10:50 PM77 °FPassing clouds.5 mph83%29.95 "HgN/A
9:50 PM79 °FPassing clouds.5 mph84%29.95 "HgN/A
8:50 PM79 °FPassing clouds.5 mph79%29.92 "HgN/A
7:51 PM82 °FPassing clouds.5 mph70%29.92 "HgN/A
6:50 PM86 °FScattered clouds.5 mph59%29.89 "Hg6 mi
5:50 PM90 °FScattered clouds.2 mph49%29.89 "HgN/A
4:50 PM91 °FScattered clouds.3 mph44%29.86 "HgN/A
3:50 PM93 °FScattered clouds.5 mph39%29.86 "HgN/A
2:50 PM93 °FScattered clouds.6 mph39%29.89 "HgN/A
1:50 PM91 °FScattered clouds.7 mph44%29.89 "HgN/A
12:50 PM90 °FScattered clouds.9 mph49%29.92 "HgN/A
11:50 AM90 °FScattered clouds.9 mph49%29.95 "Hg6 mi
10:50 AM86 °FScattered clouds.9 mph66%29.95 "Hg6 mi
9:50 AM82 °FPartly sunny.6 mph74%29.95 "Hg5 mi
8:55 AM79 °FPartly sunny.6 mph84%29.92 "Hg5 mi
7:55 AM75 °FFog.5 mph89%29.92 "Hg3 mi
6:51 AM73 °FFog.3 mph89%29.92 "Hg3 mi
5:51 AM73 °FFog.5 mph89%29.89 "Hg3 mi
4:51 AM73 °FFog.3 mph94%29.89 "Hg3 mi
3:50 AM73 °FFog.2 mph89%29.89 "Hg4 mi
Weather by CustomWeather, © 2014

See weather overviewHow to use our weather pages